Regional Weather Roundup
Issued by NWS Charleston, SC

Current Version | Previous Version | Graphics & Text | Print | Product List | Glossary On
Versions: 1 2 3 4 5 6 7 8 9 10 11 12 13 14 15 16 17 18 19 20 21 22 23 24 25 26 27 28 29 30 31 32 33 34 35 36 37 38 39 40 41 42 43 44 45 46 47 48 49 50
000 ASUS42 KCHS 011712 RWRCHS REGIONAL WEATHER ROUNDUP NATIONAL WEATHER SERVICE CHARLESTON SC 100 PM EDT SAT AUG 01 2015 NOTE: "FAIR" INDICATES FEW OR NO CLOUDS BELOW 12,000 FEET WITH NO SIGNIFICANT WEATHER AND/OR OBSTRUCTIONS TO VISIBILITY. NOT ALL STATIONS ARE QUALITY CONTROLLED BY THE NATIONAL WEATHER SERVICE. USE DATA WITH CAUTION...ESPECIALLY DEWPOINT OBSERVATIONS. SCZ027-030-031-034>040-042>050-011800- ...SOUTHEAST SOUTH CAROLINA... CITY SKY/WX TMP DP RH WIND PRES REMARKS N CHARLESTON PTSUNNY 86 75 69 SE15 29.94S HX 95 WATERFRONT PRK N/A 76 75 96 SE6 29.93R MOUNT PLEASANT LGT RAIN 79 77 94 SE5 29.96S JOHNS ISLAND RAIN 77 77 100 NE5 29.96R VSB 1 PINOPOLIS NOT AVBL MONCKS CORNER NOT AVBL SUMMERVILLE FAIR 90 77 66 SE3 29.94F HX 102 BEAUFORT MCAS MOSUNNY 89 76 65 CALM 29.93F HX 100 BEAUFORT ARPT FAIR 82 77 83 NW3 29.93F HX 91 HILTON HEAD IS MOSUNNY 84 73 70 NE6 29.95S HX 91 WALTERBORO CLOUDY 90 73 58 CALM 29.94F HX 98 ALLENDALE FAIR 84 75 74 CALM 29.93F HX 92 ...SOUTHERN MIDLANDS AND PEE DEE... CITY SKY/WX TMP DP RH WIND PRES REMARKS GEORGETOWN NOT AVBL KINGSTREE NOT AVBL ORANGEBURG PTSUNNY 90 66 45 VRB3 29.94F HX 92 BARNWELL PTSUNNY 88 75 66 SE3 29.95F HX 97 AIKEN NOT AVBL MANNING RAIN 90 64 43 NE8 29.94F HX 91 COLUMBIA MOSUNNY 93 61 34 NE7 29.94F HX 93 SUMTER MOSUNNY 93 61 33 VRB7 29.93F HX 93 FLORENCE PTSUNNY 92 64 39 VRB6 29.94F HX 93 MYRTLE BEACH MOSUNNY 88 73 62 S12 29.96F HX 96 N MYRTLE BEACH MOSUNNY 85 75 72 S9 29.95S HX 93 $$ GAZ063-065-086>088-099>101-113>116-118-119-134>141-150-011800- ...SOUTHEAST GEORGIA... CITY SKY/WX TMP DP RH WIND PRES REMARKS SAVANNAH ARPT PTSUNNY 89 73 59 CALM 29.94F HX 97 HUNTER AAF MOSUNNY 88 78 72 W5 29.91F HX 101 FORT STEWART MOSUNNY 90 73 58 E6 29.86F HX 98 STATESBORO MOSUNNY 87 77 72 CALM 29.93F HX 99 SYLVANIA MOSUNNY 90 76 65 N5 29.94F HX 101 CLAXTON NOT AVBL ...CSRA...CENTRAL AND FAR SOUTHEAST GEORGIA... CITY SKY/WX TMP DP RH WIND PRES REMARKS THOMSON MOSUNNY 89 69 50 N7 30.00F HX 94 AUGUSTA-BUSH MOSUNNY 90 72 55 VRB6 29.93F HX 97 AUGUSTA-DANIEL MOSUNNY 91 65 41 E6G16 29.95F HX 93 SWAINSBORO PTSUNNY 90 77 66 E5 29.95S HX 102 VIDALIA MOSUNNY 88 73 62 E7 29.94S HX 96 EASTMAN FAIR 89 75 63 E6 29.96F HX 98 HAZLEHURST PTSUNNY 89 75 63 E3 29.92F HX 99 ALMA MOSUNNY 86 76 71 VRB5 29.94S HX 96 WAYCROSS CLOUDY 86 80 82 NE6 29.93S HX 102 JESUP PTSUNNY 86 79 79 E3 29.95S HX 99 BAXLEY PTSUNNY 88 77 70 S5 29.94S HX 100 BRUNSWICK PTSUNNY 86 73 66 CALM 29.94F HX 93 SAINT SIMONS SUNNY 83 75 77 S7 29.93F HX 90 $$ SCZ027-028-034-036>038-045-046-048>050-GAZ119-141-011800- ...LAKE AND SUPPLEMENTAL COASTAL OBSERVATIONS... STATION/POSITION TIME TEMP WIND PRES WAVE SWELL AIR SEA DIR/SP/G HT/PER HT/PER/DIR (UTC) (F) (DEG/KT/KT) (MB) (FT/S) (FT/S/D) UPR LAKE MARION NOT AVBL WINYAH BAY NOT AVBL LAKE MURRAY 1600 87 30/ 2/ 5 1013.9F ACE BASIN NERRS NOT AVBL FORT PULASKI 1600 83 85 290/ 2/ 3 1014.3S SAPELO ISLAND 1600 83 290/ 2 1014.0S $$ ANZ835-935-AMZ111-154-330-350-352-354-370-450-454-472-011800- ...C-MAN AND BUOY OBSERVATIONS... STATION/POSITION TIME TEMP WIND PRES WAVE SWELL AIR SEA DIR/SP/G HT/PER HT/PER/DIR (UTC) (F) (DEG/KT/KT) (MB) (FT/S) (FT/S/D) BUOY 41004 1650 78 84 140/ 14/ 16 1014.3R 3/ 7 2/ 7 BUOY 41008 1650 81 83 220/ 6/ 6 1014.3S 3/ 6 3/150/ 6 FOLLY BEACH CMAN 1600 82 120/ 8/ 9 1014.3R CAPERS NEARSHORE 1608 79 130/ 8/ 12 1014.4R FRIPP NEARSHORE 1600 84 260/ 4/ 6 1013.7R STATION/POSITION TIME TEMP WIND PRES WAVE SWELL AIR SEA DIR/SP/G HT/PER HT/PER/DIR (UTC) (F) (DEG/KT/KT) (MB) (FT/S) (FT/S/D) 5E ST. MARYS GA 1621 83 N/A 3/ 5 FRYING PAN BUOY 1650 80 83 200/ 8/ 10 1014.4F 4/ 7 3/160/ 7 BUOY 41025 1650 80 85 170/ 10/ 12 1013.4F 3/ 7 3/160/ 7 CAPE LOOKOUT NC 1600 82 200/ 8/ 9 1013.6S BUOY 41002 1650 83 81 220/ 16/ 19 1016.7S 6/ 7 2/ 90/10 BUOY 41010 1620 78 84 160/ 19/ 23 1017.1F ST AUGUSTINE FL 1700 86 82 240/ 14/ 17 1014.6F $$

USA.gov is the U.S. government's official web portal to all federal, state and local government web resources and services.